This is the latest recevied weather packets stored in our database for station/object K0VSC-1. If no packets are shown the sender has not sent any weather packets the latest 10 day(s).
| Time | Temp. | Humidity | Pressure | Rain* | Wind** | Luminosity | Snow |
|---|---|---|---|---|---|---|---|
| 1777742293 | 14.44° C | 40% | 1015.1 hPa | 0 mm | - | 847 W/m² | - |
| 1777741993 | 14.44° C | 42% | 1015.2 hPa | 0 mm | - | 812 W/m² | - |
| 1777741693 | 13.89° C | 40% | 1015.2 hPa | 0 mm | - | 738 W/m² | - |
| 1777741393 | 13.89° C | 39% | 1015.2 hPa | 0 mm | - | 817 W/m² | - |
| 1777741093 | 14.44° C | 42% | 1015.3 hPa | 0 mm | - | 754 W/m² | - |
| 1777740793 | 13.89° C | 42% | 1015.4 hPa | 0 mm | - | 805 W/m² | - |
| 1777740493 | 13.89° C | 40% | 1015.4 hPa | 0 mm | - | 795 W/m² | - |
| 1777740193 | 13.89° C | 40% | 1015.5 hPa | 0 mm | - | 784 W/m² | - |
| 1777739893 | 13.33° C | 42% | 1015.6 hPa | 0 mm | - | 772 W/m² | - |
| 1777739593 | 13.33° C | 41% | 1015.7 hPa | 0 mm | - | 638 W/m² | - |
| 1777739293 | 12.78° C | 40% | 1015.7 hPa | 0 mm | - | 759 W/m² | - |
| 1777738993 | 12.78° C | 39% | 1015.7 hPa | 0 mm | - | 737 W/m² | - |
| 1777738693 | 12.78° C | 42% | 1015.8 hPa | 0 mm | - | 729 W/m² | - |
| 1777738393 | 12.22° C | 41% | 1015.9 hPa | 0 mm | - | 705 W/m² | - |
| 1777738093 | 12.22° C | 44% | 1016 hPa | 0 mm | - | 719 W/m² | - |
| 1777737793 | 12.22° C | 43% | 1016.2 hPa | 0 mm | - | 431 W/m² | - |
| 1777737493 | 11.67° C | 43% | 1016.2 hPa | 0 mm | - | 775 W/m² | - |
| 1777737193 | 11.67° C | 43% | 1016.3 hPa | 0 mm | - | 455 W/m² | - |
| 1777736893 | 11.67° C | 44% | 1016.6 hPa | 0 mm | - | 299 W/m² | - |
| 1777736593 | 11.67° C | 44% | 1016.7 hPa | 0 mm | - | 610 W/m² | - |
| 1777736293 | 11.67° C | 44% | 1016.8 hPa | 0 mm | - | 675 W/m² | - |
| 1777735993 | 11.67° C | 47% | 1016.9 hPa | 0 mm | - | 661 W/m² | - |
| 1777735693 | 11.11° C | 48% | 1016.9 hPa | 0 mm | - | 638 W/m² | - |
| 1777735393 | 11.11° C | 46% | 1017 hPa | 0 mm | - | 589 W/m² | - |
| 1777735093 | 10.56° C | 49% | 1017.1 hPa | 0 mm | - | 519 W/m² | - |
* Rain latest hour (hover to see other rain measurements)
** Current wind speed in m/s (hover to see current wind gust speed)